EW3517 Weather Reports


Display with metric or nautical units.
time (UTC)temp
F
wind
direction
speed
MPH
gust
MPH
rain 1hr
in
rain 24hr
in
rain mn
in
humidity
%
barometer
mb
20260505030027 76 303 0.0 0.0 0.00 0.00 0.00 65 997.5
20260505024526 77 63 0.0 0.0 0.00 0.00 0.00 64 997.1
20260505023026 77 63 0.0 0.0 0.00 0.00 0.00 64 997.2
20260505021525 77 136 0.0 1.0 0.00 0.00 0.00 63 996.9
20260505020023 78 119 0.0 1.0 0.00 0.00 0.00 62 996.9
20260505014531 78 280 0.0 0.0 0.00 0.00 0.00 61 996.9
20260505013021 79 15 0.0 1.0 0.00 0.00 0.00 60 997.0
20260505011521 79 221 0.0 1.0 0.00 0.00 0.00 59 997.1
20260505010023 79 98 0.0 1.0 0.00 0.00 0.00 59 997.4
20260505004520 80 334 0.0 0.0 0.00 0.00 0.00 58 997.3
20260505003017 80 148 0.0 0.0 0.00 0.00 0.00 56 997.3
20260505001516 81 121 0.0 0.0 0.00 0.00 0.00 55 997.6
20260505000014 81 261 0.0 0.0 0.00 0.00 0.00 55 997.7
20260504234513 81 138 0.0 1.0 0.00 0.00 0.00 54 997.7
20260504233011 81 173 0.0 0.0 0.00 0.00 0.00 54 997.9
20260504231510 82 142 0.0 0.0 0.00 0.00 0.00 53 998.0
20260504230008 82 5 0.0 0.0 0.00 0.00 0.00 53 998.3
20260504224506 81 112 0.0 1.0 0.00 0.00 0.00 52 998.4
20260504223005 81 26 0.0 0.0 0.00 0.00 0.00 53 998.7
20260504221504 82 145 0.0 1.0 0.00 0.00 0.00 52 998.7
20260504220008 81 100 0.0 0.0 0.00 0.00 0.00 51 998.8
20260504214600 82 169 0.0 0.0 0.00 0.00 0.00 51 999.1
20260504213105 82 134 0.0 0.0 0.00 0.00 0.00 50 999.4
20260504211601 82 115 0.0 0.0 0.00 0.00 0.00 50 999.4
20260504210059 82 5 0.0 0.0 0.00 0.00 0.00 48 999.8
20260504204555 83 184 0.0 0.0 0.00 0.00 0.00 47 1000.0
20260504203106 83 35 0.0 0.0 0.00 0.00 0.00 46 1000.3
20260504201555 83 309 0.0 1.0 0.00 0.00 0.00 47 1000.3
20260504200048 83 265 0.0 1.0 0.00 0.00 0.00 45 1000.6
20260504194544 83 56 0.0 0.0 0.00 0.00 0.00 47 1000.8
20260504193042 82 179 0.0 1.0 0.00 0.00 0.00 47 1001.1
20260504191539 81 186 0.0 1.0 0.00 0.00 0.00 47 1001.4
20260504190039 81 219 0.0 0.0 0.00 0.00 0.00 47 1001.4
20260504184533 80 171 0.0 1.0 0.00 0.00 0.00 47 1001.7
20260504183031 80 279 0.0 1.0 0.00 0.00 0.00 47 1001.9
20260504181534 80 265 0.0 0.0 0.00 0.00 0.00 47 1002.2
20260504180027 80 324 0.0 0.0 0.00 0.00 0.00 46 1002.3
20260504174524 80 134 0.0 0.0 0.00 0.00 0.00 47 1002.7
20260504173023 79 292 0.0 1.0 0.00 0.00 0.00 46 1002.7
20260504171519 78 265 0.0 0.0 0.00 0.00 0.00 46 1002.9
20260504081509 68 197 0.0 0.0 0.00 0.00 0.00 47 1006.1
20260504044545 71 217 0.0 1.0 0.00 0.00 0.00 42 1008.4
20260504043041 71 360 0.0 0.0 0.00 0.00 0.00 41 1008.3
20260504041541 71 236 0.0 0.0 0.00 0.00 0.00 40 1008.3
20260504040051 72 270 0.0 1.0 0.00 0.00 0.00 40 1008.5
20260504034555 72 321 0.0 0.0 0.00 0.00 0.00 39 1008.6
20260504033037 72 66 0.0 0.0 0.00 0.00 0.00 39 1008.6
20260504031537 73 295 0.0 0.0 0.00 0.00 0.00 38 1008.6